���t,����,�O�C���x,�����t���O,�O�C���Ύ��x,�����t���O,���ԉ��x,�����t���O,���ԑ��Ύ��x,�����t���O,�g�C������,�����t���O,�L�b�`�����x,�����t���O,��󒲎����x,�����t���O
2005/2/1,0:00,3.3,0,,2,13.5,0,53.7,0,10.1,0,16,0,8.5,0
2005/2/1,0:15,3.7,0,,2,12.8,0,56.6,0,10.1,0,16.1,0,8.6,0
2005/2/1,0:30,3.9,0,,2,13.3,0,53.7,0,10.1,0,16.1,0,8.9,0
2005/2/1,0:45,3.9,0,,2,13.7,0,50.7,0,10.1,0,15.8,0,9,0
2005/2/1,1:00,3.8,0,,2,13.8,0,48.4,0,10.1,0,15.5,0,8.7,0
2005/2/1,1:15,3.7,0,,2,13.6,0,47.3,0,10.1,0,15.5,0,8.8,0
2005/2/1,1:30,3.2,0,,2,11,0,52,0,10,0,15.5,0,8.7,0
2005/2/1,1:45,3,0,,2,9.4,0,58.7,0,10,0,15.5,0,8.6,0
2005/2/1,2:00,3.2,0,,2,8.4,0,61.6,0,10,0,15.5,0,8.9,0
2005/2/1,2:15,3.3,0,,2,7.9,0,63.2,0,10,0,14.6,0,9.2,0
2005/2/1,2:30,3.2,0,,2,7.7,0,62.9,0,10,0,13.4,0,8.9,0
2005/2/1,2:45,3.1,0,,2,7.5,0,63.5,0,10,0,12.7,0,8.7,0
2005/2/1,3:00,2.3,0,,2,7.2,0,63.6,0,10,0,12.1,0,8.5,0
2005/2/1,3:15,2.5,0,,2,6.7,0,65.2,0,10,0,11.6,0,8.4,0
2005/2/1,3:30,2.5,0,,2,6.2,0,67.6,0,9.9,0,11.3,0,8.3,0
2005/2/1,3:45,2.4,0,,2,6,0,67.5,0,9.9,0,10.9,0,8.2,0
2005/2/1,4:00,2.3,0,,2,5.9,0,67.2,0,9.9,0,10.6,0,8.1,0
2005/2/1,4:15,1.8,0,,2,5.5,0,67.6,0,9.9,0,10.2,0,7.9,0
2005/2/1,4:30,1.1,0,,2,5.5,0,67.4,0,9.9,0,9.9,0,7.8,0
2005/2/1,4:45,0.8,0,,2,4.9,0,69.3,0,9.9,0,9.6,0,7.7,0
2005/2/1,5:00,0.9,0,,2,4.5,0,71.2,0,9.8,0,9.4,0,7.6,0
2005/2/1,5:15,1.1,0,,2,4.4,0,71.1,0,9.8,0,9.2,0,7.4,0
2005/2/1,5:30,1.3,0,,2,4.4,0,70.9,0,9.8,0,9,0,7.2,0
2005/2/1,5:45,1.4,0,,2,4.4,0,70.6,0,9.8,0,8.8,0,7,0
2005/2/1,6:00,1.4,0,,2,4.3,0,70,0,9.8,0,8.6,0,6.8,0
2005/2/1,6:15,1.4,0,,2,4.3,0,70.1,0,9.7,0,8.4,0,6.7,0
2005/2/1,6:30,1.4,0,,2,4.3,0,69.6,0,9.7,0,8.2,0,6.6,0
2005/2/1,6:45,1.5,0,,2,4.1,0,69.8,0,9.7,0,8.1,0,6.6,0
2005/2/1,7:00,1.3,0,,2,4.1,0,69.8,0,9.7,0,7.9,0,6.5,0
2005/2/1,7:15,1.4,0,,2,4,0,69.1,0,9.6,0,7.8,0,6.4,0
2005/2/1,7:30,1.4,0,,2,3.9,0,69.8,0,9.6,0,7.7,0,6.3,0
2005/2/1,7:45,1.4,0,,2,7,0,72.8,0,9.6,0,7.6,0,6.2,0
2005/2/1,8:00,1.4,0,,2,9.5,0,74.3,0,9.6,0,7.4,0,6.2,0
2005/2/1,8:15,1.1,0,,2,10.1,0,73.8,0,9.5,0,7.2,0,6.1,0
2005/2/1,8:30,1.3,0,,2,9.6,0,78.7,0,9.5,0,8.3,0,6.1,0
2005/2/1,8:45,1.3,0,,2,10.7,0,78.6,0,9.5,0,12,0,6.2,0
2005/2/1,9:00,1.4,0,,2,10.5,0,77.5,0,9.4,0,13.9,0,6.4,0
2005/2/1,9:15,1.5,0,,2,10.8,0,72.6,0,9.4,0,14.4,0,6.5,0
2005/2/1,9:30,1.5,0,,2,10.4,0,79.8,0,9.4,0,15.1,0,6.5,0
2005/2/1,9:45,1.4,0,,2,10.6,0,79.3,0,9.4,0,15.2,0,6.6,0
2005/2/1,10:00,1.6,0,,2,9.5,0,76,0,9.6,0,14.8,0,6.7,0
2005/2/1,10:15,1.7,0,,2,9.3,0,72.1,0,9.5,0,15.2,0,6.8,0
2005/2/1,10:30,2.4,0,,2,9.9,0,68.8,0,10.3,0,15.5,0,6.9,0
2005/2/1,10:45,2.5,0,,2,12.8,0,65.6,0,10.2,0,14.8,0,6.8,0
2005/2/1,11:00,2.5,0,,2,16.2,0,55.4,0,10.1,0,14.2,0,7,0
2005/2/1,11:15,2,0,,2,13.8,0,58.3,0,10.3,0,13.9,0,6.7,0
2005/2/1,11:30,1.9,0,,2,13.9,0,58.2,0,10.3,0,14.7,0,7.6,0
2005/2/1,11:45,2.5,0,,2,14,0,56.7,0,10.2,0,15,0,7.8,0
2005/2/1,12:00,2.2,0,,2,15.5,0,51.4,0,10.2,0,14.3,0,7.7,0
2005/2/1,12:15,2.4,0,,2,14.9,0,51.1,0,9.8,0,14.6,0,7.6,0
2005/2/1,12:30,2.3,0,,2,14.1,0,52.4,0,9.7,0,15.1,0,7.6,0
2005/2/1,12:45,2.3,0,,2,14.5,0,50.6,0,9.7,0,15.5,0,7.6,0
2005/2/1,13:00,2.3,0,,2,12.3,0,53.4,0,9.7,0,15.9,0,7.7,0
2005/2/1,13:15,2.2,0,,2,10.7,0,58,0,9.7,0,15.8,0,7.7,0
2005/2/1,13:30,2,0,,2,9.3,0,59.1,0,9.6,0,16.1,0,7.8,0
2005/2/1,13:45,1.7,0,,2,8.7,0,60.7,0,9.6,0,15.4,0,7.7,0
2005/2/1,14:00,1.7,0,,2,8.2,0,61.8,0,9.2,0,13.9,0,7.6,0
2005/2/1,14:15,1.9,0,,2,7.9,0,62.9,0,9.2,0,12.9,0,7.4,0
2005/2/1,14:30,1.7,0,,2,7.6,0,64.4,0,9.2,0,12.3,0,7.2,0
2005/2/1,14:45,1.9,0,,2,7.6,0,63.1,0,9.2,0,11.7,0,7.1,0
2005/2/1,15:00,1.7,0,,2,7.1,0,64.5,0,9.2,0,11.1,0,7,0
2005/2/1,15:15,1.8,0,,2,7.1,0,63.8,0,9.1,0,10.9,0,6.9,0
2005/2/1,15:30,1.6,0,,2,8.4,0,67.5,0,9.1,0,10.7,0,6.8,0
2005/2/1,15:45,1.5,0,,2,9.3,0,68.8,0,9.1,0,10.2,0,6.7,0
2005/2/1,16:00,1.4,0,,2,9.2,0,75.7,0,9.1,0,10.3,0,6.7,0
2005/2/1,16:15,1.2,0,,2,9.7,0,77.8,0,9.1,0,11.1,0,6.6,0
2005/2/1,16:30,1.2,0,,2,9.8,0,80.3,0,9,0,12.8,0,6.7,0
2005/2/1,16:45,1,0,,2,9.9,0,81.8,0,9.3,0,13.5,0,6.7,0
2005/2/1,17:00,0.7,0,,2,9.9,0,82.5,0,9.2,0,14.1,0,6.8,0
2005/2/1,17:15,0.9,0,,2,9.4,0,82,0,9.2,0,14.4,0,6.9,0
2005/2/1,17:30,0.9,0,,2,8.7,0,78.4,0,9.2,0,14.6,0,6.9,0
2005/2/1,17:45,0.9,0,,2,8.5,0,74.7,0,9.2,0,14.8,0,7,0
2005/2/1,18:00,0.8,0,,2,8.6,0,68.4,0,9.1,0,14.6,0,6.9,0
2005/2/1,18:15,0.7,0,,2,9.2,0,70.8,0,9.4,0,13.5,0,6.6,0
2005/2/1,18:30,0.7,0,,2,9.3,0,74.6,0,9.4,0,13,0,6.2,0
2005/2/1,18:45,0.6,0,,2,9.5,0,76.5,0,9.4,0,12.7,0,6,0
2005/2/1,19:00,0.7,0,,2,9,0,78.4,0,9.4,0,13.5,0,6.2,0
2005/2/1,19:15,0.9,0,,2,7.3,0,76.3,0,9.4,0,14.1,0,6.6,0
2005/2/1,19:30,0.8,0,,2,10.2,0,71.3,0,9.4,0,14.3,0,6.6,0
2005/2/1,19:45,0.9,0,,2,10.3,0,72.3,0,9.4,0,14.5,0,6.8,0
2005/2/1,20:00,1,0,,2,12,0,65.9,0,9.3,0,12.2,0,6.5,0
2005/2/1,20:15,1.1,0,,2,12.1,0,63.1,0,9.3,0,13,0,6.4,0
2005/2/1,20:30,1.2,0,,2,12,0,57.9,0,9.3,0,13.8,0,6.4,0
2005/2/1,20:45,1.2,0,,2,12.4,0,51.3,0,9.2,0,14.1,0,6.4,0
2005/2/1,21:00,1.1,0,,2,12.3,0,49.5,0,9.2,0,14.4,0,6.4,0
2005/2/1,21:15,1.1,0,,2,11.6,0,49,0,9.1,0,13.9,0,6.4,0
2005/2/1,21:30,1.2,0,,2,11.8,0,50.9,0,9,0,13.6,0,6.1,0
2005/2/1,21:45,1.2,0,,2,12,0,47.7,0,9.5,0,13.6,0,5.9,0
2005/2/1,22:00,1.2,0,,2,11.7,0,47.1,0,9.4,0,13.3,0,5.8,0
2005/2/1,22:15,1.3,0,,2,10.1,0,54.2,0,9.4,0,13.2,0,5.6,0
2005/2/1,22:30,1.2,0,,2,9.5,0,57,0,9.3,0,13,0,5.5,0
2005/2/1,22:45,1.2,0,,2,9.4,0,58.2,0,9.3,0,13,0,5.5,0
2005/2/1,23:00,1.2,0,,2,9.2,0,58.5,0,9.3,0,12.9,0,5.6,0
2005/2/1,23:15,1.1,0,,2,9,0,58.5,0,9.2,0,13,0,5.5,0
2005/2/1,23:30,1.2,0,,2,9.1,0,61.1,0,9.2,0,13,0,5.3,0
2005/2/1,23:45,1.2,0,,2,8.9,0,61.7,0,9.2,0,12.9,0,5.3,0
2005/2/2,0:00,1.1,0,,2,8.9,0,63.5,0,9.1,0,12.9,0,5.2,0
2005/2/2,0:15,1.1,0,,2,9.2,0,69.4,0,9.1,0,13.2,0,5.6,0
2005/2/2,0:30,1.2,0,,2,9.9,0,77,0,9,0,12.7,0,6.1,0
2005/2/2,0:45,1.1,0,,2,10.1,0,78.7,0,9,0,12.7,0,6.5,0
2005/2/2,1:00,1.1,0,,2,9.1,0,79.5,0,9.6,0,13,0,7.5,0
2005/2/2,1:15,1,0,,2,7.9,0,75.9,0,9.5,0,13.9,0,7.3,0
2005/2/2,1:30,0.8,0,,2,7.2,0,75.6,0,9.5,0,14.4,0,7.3,0
2005/2/2,1:45,0.8,0,,2,6.6,0,76.5,0,9.4,0,14.2,0,7.2,0
2005/2/2,2:00,0.8,0,,2,6.2,0,76.9,0,9.4,0,12.7,0,7.1,0
2005/2/2,2:15,0.9,0,,2,6,0,76.5,0,9.4,0,11.7,0,6.9,0
2005/2/2,2:30,0.9,0,,2,5.8,0,75.8,0,9.3,0,10.9,0,6.7,0
2005/2/2,2:45,1.1,0,,2,5.6,0,75.6,0,9.3,0,10.3,0,6.5,0
2005/2/2,3:00,1,0,,2,5.4,0,75.3,0,9.3,0,9.7,0,6.4,0
2005/2/2,3:15,1,0,,2,5.2,0,74.2,0,9.2,0,9.5,0,6.3,0
2005/2/2,3:30,1,0,,2,5,0,73.2,0,9.2,0,9.2,0,6.1,0
2005/2/2,3:45,1,0,,2,4.8,0,72.7,0,9.1,0,9,0,6.1,0
2005/2/2,4:00,1,0,,2,4.7,0,72.1,0,9.1,0,8.7,0,6,0
2005/2/2,4:15,1.1,0,,2,4.6,0,71.7,0,9.1,0,8.5,0,5.9,0
2005/2/2,4:30,1.2,0,,2,4.6,0,71.3,0,9,0,8.3,0,5.8,0
2005/2/2,4:45,1.1,0,,2,4.5,0,71.1,0,9,0,8.1,0,5.7,0
2005/2/2,5:00,1.1,0,,2,4.4,0,70.6,0,9,0,7.9,0,5.7,0
2005/2/2,5:15,1.1,0,,2,4.2,0,70.5,0,8.9,0,7.7,0,5.6,0
2005/2/2,5:30,1.2,0,,2,4.2,0,70.1,0,8.9,0,7.6,0,5.5,0
2005/2/2,5:45,1.2,0,,2,4.1,0,69.8,0,8.9,0,7.5,0,5.5,0
2005/2/2,6:00,1.3,0,,2,4,0,69.8,0,8.8,0,7.2,0,5.4,0
2005/2/2,6:15,1.4,0,,2,4,0,69.1,0,8.8,0,7.1,0,5.3,0
2005/2/2,6:30,1.4,0,,2,3.9,0,68.7,0,8.7,0,6.9,0,5.3,0
2005/2/2,6:45,1.5,0,,2,3.9,0,68.2,0,8.7,0,6.8,0,5.2,0
2005/2/2,7:00,1.5,0,,2,3.9,0,68,0,8.7,0,6.7,0,5.2,0
2005/2/2,7:15,1.5,0,,2,3.8,0,67.8,0,8.6,0,6.6,0,5.1,0
2005/2/2,7:30,1.6,0,,2,3.8,0,67.4,0,8.6,0,6.5,0,5.1,0
2005/2/2,7:45,1.6,0,,2,3.8,0,67.3,0,8.6,0,6.4,0,5.1,0
2005/2/2,8:00,1.6,0,,2,3.7,0,66.8,0,8.5,0,6.3,0,5,0
2005/2/2,8:15,1.7,0,,2,6.8,0,72,0,8.5,0,6.2,0,5,0
2005/2/2,8:30,1.8,0,,2,9.7,0,69.7,0,8.5,0,6.1,0,5,0
2005/2/2,8:45,1.8,0,,2,8.9,0,61.7,0,8.5,0,6,0,4.9,0
2005/2/2,9:00,2,0,,2,8.6,0,61.5,0,8.8,0,7.3,0,5,0
2005/2/2,9:15,1.9,0,,2,8.5,0,65.2,0,8.7,0,10.9,0,5.2,0
2005/2/2,9:30,2,0,,2,8.6,0,67.2,0,8.7,0,12,0,5.7,0
2005/2/2,9:45,2.4,0,,2,8.8,0,67.1,0,8.6,0,11.5,0,5.9,0
2005/2/2,10:00,2.8,0,,2,8.9,0,68.4,0,8.6,0,11.3,0,5.8,0
2005/2/2,10:15,3.4,0,,2,9.7,0,62.1,0,8.6,0,11.3,0,5.7,0
2005/2/2,10:30,3.3,0,,2,10.6,0,73.9,0,8.5,0,11.5,0,5.8,0
2005/2/2,10:45,3.9,0,,2,12.2,0,74.6,0,9.1,0,11.5,0,6.1,0
2005/2/2,11:00,4,0,,2,12.4,0,67.9,0,9.9,0,11.8,0,6.8,0
2005/2/2,11:15,3.9,0,,2,13.5,0,52.8,0,9.7,0,13,0,6.8,0
2005/2/2,11:30,4,0,,2,15.2,0,44.6,0,9.6,0,14.1,0,7,0
2005/2/2,11:45,4,0,,2,15.8,0,41.2,0,9.2,0,14.6,0,6.9,0
2005/2/2,12:00,4.3,0,,2,16.4,0,42.3,0,9.2,0,13.8,0,6.8,0
2005/2/2,12:15,4.5,0,,2,17.5,0,42.5,0,9.1,0,13.4,0,6.7,0
2005/2/2,12:30,4.5,0,,2,17.3,0,41.2,0,9.1,0,13.4,0,6.7,0
2005/2/2,12:45,4.7,0,,2,18,0,42,0,9.1,0,14.1,0,6.7,0
2005/2/2,13:00,5,0,,2,18.2,0,37.7,0,9,0,15.5,0,6.9,0
2005/2/2,13:15,4.9,0,,2,16.9,0,36.5,0,9.2,0,15.6,0,7.5,0
2005/2/2,13:30,4.8,0,,2,14.5,0,41.5,0,9.2,0,16,0,7.5,0
2005/2/2,13:45,4.9,0,,2,13,0,44.7,0,9.3,0,15.7,0,7.5,0
2005/2/2,14:00,5,0,,2,12.3,0,46.5,0,9.2,0,15.1,0,7.6,0
2005/2/2,14:15,5.2,0,,2,12,0,46.8,0,9.2,0,14.6,0,8,0
2005/2/2,14:30,5.2,0,,2,12.1,0,46.3,0,9.2,0,13.9,0,8.2,0
2005/2/2,14:45,5,0,,2,12.2,0,48.5,0,9.2,0,13.4,0,8.3,0
2005/2/2,15:00,4.9,0,,2,11.5,0,51.2,0,9.2,0,13.2,0,8.4,0
2005/2/2,15:15,4.7,0,,2,10.9,0,52.5,0,9.2,0,12.9,0,8.5,0
2005/2/2,15:30,4.8,0,,2,10.3,0,54.2,0,9.1,0,13.1,0,8.5,0
2005/2/2,15:45,4.8,0,,2,9.6,0,56.5,0,9.1,0,12.9,0,8.4,0
2005/2/2,16:00,4.6,0,,2,9.8,0,56.7,0,9.1,0,12.6,0,8.3,0
2005/2/2,16:15,4.4,0,,2,9.4,0,57.2,0,9.1,0,12.3,0,8.2,0
2005/2/2,16:30,4,0,,2,8.9,0,58.8,0,9.1,0,11.8,0,8.1,0
2005/2/2,16:45,3.5,0,,2,8.1,0,61.4,0,9.1,0,11.8,0,8.1,0
2005/2/2,17:00,3.3,0,,2,7.4,0,64.2,0,9.1,0,11.6,0,8,0
2005/2/2,17:15,3.3,0,,2,6.8,0,66.1,0,9.1,0,11.4,0,8,0
2005/2/2,17:30,3.3,0,,2,8.2,0,72.1,0,9.3,0,11.1,0,7.9,0
2005/2/2,17:45,3.2,0,,2,9.1,0,75.3,0,9.3,0,10.7,0,7.7,0
2005/2/2,18:00,3,0,,2,9.6,0,77.6,0,9.3,0,10.3,0,7.5,0
2005/2/2,18:15,2.9,0,,2,10.1,0,78.7,0,9.3,0,11.3,0,7.4,0
2005/2/2,18:30,2.8,0,,2,10,0,81.5,0,9.2,0,12.8,0,7.4,0
2005/2/2,18:45,3,0,,2,10,0,82.2,0,9.2,0,13.7,0,7.4,0
2005/2/2,19:00,3,0,,2,10.3,0,83.4,0,9.2,0,14.3,0,7.4,0
2005/2/2,19:15,3.2,0,,2,10.6,0,83.7,0,9.2,0,14.7,0,7.4,0
2005/2/2,19:30,3.2,0,,2,10,0,76.4,0,9.2,0,14.9,0,7.4,0
2005/2/2,19:45,3.3,0,,2,10.7,0,77,0,9.2,0,15.3,0,7.4,0
2005/2/2,20:00,3.3,0,,2,11.3,0,83.1,0,9.2,0,15.7,0,7.5,0
2005/2/2,20:15,3.3,0,,2,11.5,0,84.5,0,9.6,0,14.9,0,7.3,0
2005/2/2,20:30,3.5,0,,2,11.2,0,80.2,0,9.6,0,15.4,0,7.4,0
2005/2/2,20:45,3.5,0,,2,10.9,0,87.7,0,9.6,0,16.2,0,7.5,0
2005/2/2,21:00,3.6,0,,2,11.2,0,88.3,0,9.6,0,16.6,0,7.5,0
2005/2/2,21:15,3.6,0,,2,11.3,0,87.6,0,9.5,0,16.2,0,7.9,0
2005/2/2,21:30,3.7,0,,2,11.5,0,86.7,0,9.5,0,16.5,0,7.8,0
2005/2/2,21:45,3.7,0,,2,11.6,0,86.4,0,9.1,0,16.7,0,7.9,0
2005/2/2,22:00,3.7,0,,2,11.6,0,85.1,0,9.1,0,16.2,0,7.8,0
2005/2/2,22:15,3.6,0,,2,11.6,0,85.5,0,9.1,0,16.3,0,8,0
2005/2/2,22:30,3.6,0,,2,11.6,0,84.2,0,9.1,0,16.3,0,8,0
2005/2/2,22:45,3.5,0,,2,10.9,0,81,0,9.1,0,16.1,0,8,0
2005/2/2,23:00,3.5,0,,2,10.5,0,78.5,0,9.1,0,16.2,0,8.1,0
2005/2/2,23:15,3.4,0,,2,10.2,0,78.8,0,9.1,0,16.2,0,8.2,0
2005/2/2,23:30,3.3,0,,2,12,0,69.7,0,9.7,0,15.3,0,8.3,0
2005/2/2,23:45,3.3,0,,2,13.3,0,62.3,0,9.7,0,14.9,0,8.3,0
2005/2/3,0:00,3.3,0,,2,14.9,0,52.7,0,9.6,0,14.5,0,9,0
2005/2/3,0:15,3.3,0,,2,15.8,0,46.1,0,9.6,0,14.1,0,9.4,0
2005/2/3,0:30,3.3,0,,2,15.2,0,50.3,0,9.6,0,14.2,0,9.2,0
2005/2/3,0:45,3.5,0,,2,11.8,0,57.3,0,9.3,0,14,0,8.9,0
2005/2/3,1:00,3.6,0,,2,10,0,62.8,0,9.3,0,14,0,8.7,0
2005/2/3,1:15,3.5,0,,2,9.3,0,65.7,0,9.4,0,15.2,0,9.2,0
2005/2/3,1:30,3.6,0,,2,8.8,0,66.9,0,9.3,0,14.7,0,9.7,0
2005/2/3,1:45,3.6,0,,2,8.4,0,68,0,9.3,0,13.4,0,9.3,0
2005/2/3,2:00,3.5,0,,2,8.1,0,69,0,9.3,0,12.7,0,9.1,0
2005/2/3,2:15,3.4,0,,2,7.9,0,68.7,0,9.3,0,12.1,0,9,0
2005/2/3,2:30,3.4,0,,2,7.6,0,69.1,0,9.3,0,11.7,0,8.8,0
2005/2/3,2:45,3.3,0,,2,7.3,0,69.4,0,9.3,0,11.4,0,8.7,0
2005/2/3,3:00,3.2,0,,2,7.1,0,70,0,9.3,0,11.2,0,8.5,0
2005/2/3,3:15,3.2,0,,2,6.8,0,70.6,0,9.3,0,10.9,0,8.4,0
2005/2/3,3:30,3.2,0,,2,6.6,0,70.4,0,9.3,0,10.6,0,8.3,0
2005/2/3,3:45,3.2,0,,2,6.5,0,70.2,0,9.3,0,10.2,0,8.2,0
2005/2/3,4:00,3,0,,2,6.5,0,70,0,9.3,0,10,0,8.1,0
2005/2/3,4:15,2.9,0,,2,6.2,0,70.8,0,9.3,0,9.8,0,7.9,0
2005/2/3,4:30,2.8,0,,2,5.9,0,71.7,0,9.3,0,9.6,0,7.8,0
2005/2/3,4:45,2.7,0,,2,5.7,0,72.5,0,9.3,0,9.5,0,7.8,0
2005/2/3,5:00,2.6,0,,2,5.4,0,72.5,0,9.3,0,9.3,0,7.7,0
2005/2/3,5:15,2.7,0,,2,5.2,0,73.2,0,9.3,0,9.2,0,7.6,0
2005/2/3,5:30,2.8,0,,2,5.1,0,72.9,0,9.3,0,9,0,7.5,0
2005/2/3,5:45,2.8,0,,2,5.1,0,72.5,0,9.2,0,8.8,0,7.4,0
2005/2/3,6:00,3,0,,2,5.3,0,71.7,0,9.2,0,8.6,0,7.3,0
2005/2/3,6:15,3,0,,2,5.3,0,70.7,0,9.2,0,8.5,0,7.2,0
2005/2/3,6:30,3,0,,2,5.3,0,70.5,0,9.2,0,8.4,0,7.1,0
2005/2/3,6:45,3,0,,2,5.3,0,69.6,0,9.2,0,8.3,0,7,0
2005/2/3,7:00,3.1,0,,2,6,0,76,0,9.2,0,8.2,0,7,0
2005/2/3,7:15,3.1,0,,2,8.1,0,76.4,0,9.2,0,8.1,0,6.9,0
2005/2/3,7:30,3.1,0,,2,8.5,0,73.2,0,9.2,0,8.1,0,6.9,0
2005/2/3,7:45,3.2,0,,2,8.8,0,76,0,9.1,0,8.3,0,6.9,0
2005/2/3,8:00,3.2,0,,2,9,0,78.3,0,9.1,0,10.4,0,7.7,0
2005/2/3,8:15,3.3,0,,2,9.3,0,81,0,9.6,0,11.5,0,7.7,0
2005/2/3,8:30,3.5,0,,2,9.1,0,76.1,0,9.5,0,12,0,7.6,0
2005/2/3,8:45,3.9,0,,2,9.2,0,70.9,0,9.5,0,12.3,0,7.6,0
2005/2/3,9:00,4.2,0,,2,9.5,0,66.9,0,9.5,0,12.7,0,7.7,0
2005/2/3,9:15,4.8,0,,2,9.9,0,63.6,0,9.5,0,12.4,0,7.7,0
2005/2/3,9:30,5.1,0,,2,14.6,0,57,0,10.5,0,12,0,7.7,0
2005/2/3,9:45,4.9,0,,2,14.7,0,59,0,10.4,0,11.9,0,7.7,0
2005/2/3,10:00,5,0,,2,14.1,0,61.3,0,10.4,0,12.2,0,7.7,0
2005/2/3,10:15,6.8,0,,2,13.3,0,65.1,0,10.3,0,13.5,0,7.8,0
2005/2/3,10:30,7.2,0,,2,12,0,53.2,0,10.3,0,14.4,0,8,0
2005/2/3,10:45,6.5,0,,2,16.7,0,32.3,0,10.3,0,14.9,0,8.1,0
2005/2/3,11:00,6.3,0,,2,14.9,0,34,0,10.2,0,15.1,0,8.1,0
2005/2/3,11:15,6.2,0,,2,13.3,0,38.6,0,10.2,0,13.7,0,8.2,0
2005/2/3,11:30,6.1,0,,2,13.6,0,38.2,0,10.2,0,12.7,0,8.3,0
2005/2/3,11:45,6.1,0,,2,14.1,0,45.7,0,10.1,0,11.8,0,8.5,0
2005/2/3,12:00,6.2,0,,2,16.8,0,41.7,0,10.1,0,11.3,0,8.6,0
2005/2/3,12:15,6.4,0,,2,17.5,0,40.8,0,9.9,0,11.5,0,8.6,0
2005/2/3,12:30,6.7,0,,2,14.3,0,46,0,9.8,0,12.6,0,9.2,0
2005/2/3,12:45,6.7,0,,2,14.2,0,46.4,0,9.8,0,13.6,0,9.3,0
2005/2/3,13:00,6.9,0,,2,13.9,0,46.7,0,9.8,0,14.3,0,9.4,0
2005/2/3,13:15,6.7,0,,2,13.5,0,47.7,0,9.8,0,13.9,0,9.4,0
2005/2/3,13:30,6.7,0,,2,13.8,0,47,0,9.8,0,13.5,0,9.5,0
2005/2/3,13:45,6.4,0,,2,14.4,0,44.5,0,9.8,0,13.3,0,9.5,0
2005/2/3,14:00,6.4,0,,2,13.9,0,48.5,0,9.7,0,13.2,0,9.6,0
2005/2/3,14:15,6.4,0,,2,14,0,49.9,0,9.7,0,13.2,0,9.6,0
2005/2/3,14:30,6.4,0,,2,13.8,0,51.7,0,9.7,0,13.8,0,9.5,0
2005/2/3,14:45,6.3,0,,2,13.6,0,53.3,0,9.7,0,13.6,0,9.6,0
2005/2/3,15:00,6,0,,2,13.3,0,54.6,0,9.7,0,14,0,9.6,0
2005/2/3,15:15,5.9,0,,2,12.4,0,57.3,0,9.7,0,14,0,9.7,0
2005/2/3,15:30,6.1,0,,2,11.9,0,59.7,0,9.7,0,13.9,0,9.8,0
2005/2/3,15:45,6.4,0,,2,11.7,0,60.6,0,9.7,0,13.9,0,9.8,0
2005/2/3,16:00,6.4,0,,2,12,0,59.3,0,9.7,0,13.7,0,9.8,0
2005/2/3,16:15,6.1,0,,2,12.2,0,58.7,0,9.7,0,13.5,0,9.9,0
2005/2/3,16:30,6,0,,2,12,0,59.2,0,9.7,0,13.5,0,9.9,0
2005/2/3,16:45,5.9,0,,2,11.4,0,60.3,0,9.8,0,13.5,0,9.9,0
2005/2/3,17:00,5.9,0,,2,10.9,0,61.9,0,9.8,0,13.5,0,9.9,0
2005/2/3,17:15,5.7,0,,2,10.5,0,63.3,0,9.6,0,13.4,0,9.9,0
2005/2/3,17:30,5.4,0,,2,10.3,0,64.1,0,9.6,0,13.3,0,9.9,0
2005/2/3,17:45,5.3,0,,2,9.8,0,65.2,0,9.6,0,13.1,0,9.8,0
2005/2/3,18:00,5.1,0,,2,9.2,0,67.5,0,9.7,0,12.8,0,9.7,0
2005/2/3,18:15,4.8,0,,2,8.9,0,68.3,0,9.7,0,12.6,0,9.7,0
2005/2/3,18:30,4.9,0,,2,8.7,0,70,0,9.7,0,12.4,0,9.6,0
2005/2/3,18:45,4.7,0,,2,10.6,0,74.2,0,9.7,0,12.1,0,9.5,0
2005/2/3,19:00,4.6,0,,2,12.3,0,77,0,9.7,0,11.8,0,9.4,0
2005/2/3,19:15,4.4,0,,2,12,0,80.2,0,9.7,0,11.6,0,9.3,0
2005/2/3,19:30,4.2,0,,2,11.6,0,82.4,0,9.8,0,12.8,0,9.3,0
2005/2/3,19:45,4,0,,2,11.6,0,83.6,0,9.8,0,15.1,0,9.5,0
2005/2/3,20:00,3.7,0,,2,11.3,0,83.3,0,9.8,0,16.2,0,9.8,0
2005/2/3,20:15,3.5,0,,2,9.5,0,85.6,0,9.8,0,16.1,0,9.8,0
2005/2/3,20:30,3.6,0,,2,8.8,0,84.9,0,9.9,0,16.1,0,9.8,0
2005/2/3,20:45,3.4,0,,2,8.7,0,85.8,0,9.9,0,16,0,9.8,0
2005/2/3,21:00,3.3,0,,2,9.1,0,81.3,0,10,0,14.8,0,9.6,0
2005/2/3,21:15,3.1,0,,2,8.9,0,86.2,0,10,0,13.8,0,9.5,0
2005/2/3,21:30,3,0,,2,11.5,0,74,0,9.8,0,13.1,0,9.3,0
2005/2/3,21:45,3.2,0,,2,12.4,0,61.9,0,10.2,0,13.8,0,9.2,0
2005/2/3,22:00,3.1,0,,2,12.5,0,57,0,10.2,0,14,0,9,0
2005/2/3,22:15,3,0,,2,12.4,0,54.3,0,10.2,0,13.6,0,9.1,0
2005/2/3,22:30,3.1,0,,2,13.5,0,50.5,0,10.2,0,13.6,0,8.9,0
2005/2/3,22:45,3,0,,2,11.6,0,55,0,10.2,0,13.6,0,8.7,0
2005/2/3,23:00,3.1,0,,2,9.9,0,68.1,0,10.2,0,13.5,0,8.5,0
2005/2/3,23:15,3.1,0,,2,9.5,0,70.1,0,10.2,0,13.6,0,8.3,0
2005/2/3,23:30,3.1,0,,2,9,0,69.4,0,9.6,0,13.9,0,8.4,0
2005/2/3,23:45,2.9,0,,2,8.8,0,68.7,0,9.6,0,13.7,0,8.5,0
2005/2/4,0:00,2.9,0,,2,8.6,0,72.4,0,9.6,0,13.5,0,8.3,0
2005/2/4,0:15,2.9,0,,2,8.5,0,71.3,0,9.6,0,13.2,0,8.1,0
2005/2/4,0:30,2.8,0,,2,8.3,0,70.3,0,9.6,0,13.1,0,8,0
2005/2/4,0:45,2.7,0,,2,8.5,0,76.4,0,9.7,0,12.9,0,8.8,0
2005/2/4,1:00,2.6,0,,2,7.8,0,79.8,0,9.7,0,12.8,0,8.7,0
2005/2/4,1:15,2.6,0,,2,7,0,78,0,9.7,0,12.7,0,8.5,0
2005/2/4,1:30,2.5,0,,2,6.5,0,78.1,0,9.7,0,12.8,0,8.7,0
2005/2/4,1:45,2.5,0,,2,6.1,0,77.8,0,9.7,0,13.1,0,9,0
2005/2/4,2:00,2.5,0,,2,5.9,0,77.4,0,9.7,0,12.2,0,8.7,0
2005/2/4,2:15,2.6,0,,2,5.7,0,76.8,0,9.7,0,11.4,0,8.5,0
2005/2/4,2:30,2.5,0,,2,5.6,0,76.5,0,9.7,0,10.9,0,8.3,0
2005/2/4,2:45,2.5,0,,2,5.6,0,75.7,0,9.7,0,10.4,0,8.2,0
2005/2/4,3:00,2.6,0,,2,5.3,0,75.5,0,9.7,0,10,0,8.1,0
2005/2/4,3:15,2.5,0,,2,5.1,0,75.6,0,9.7,0,9.8,0,8,0
2005/2/4,3:30,2.4,0,,2,5.1,0,75.4,0,9.7,0,9.6,0,7.9,0
2005/2/4,3:45,2.4,0,,2,4.9,0,75.7,0,9.6,0,9.4,0,7.8,0
2005/2/4,4:00,2.3,0,,2,4.8,0,75.9,0,9.6,0,9.2,0,7.7,0
2005/2/4,4:15,2.3,0,,2,4.6,0,75.4,0,9.6,0,9,0,7.6,0
2005/2/4,4:30,2.3,0,,2,4.5,0,75.4,0,9.6,0,8.9,0,7.5,0
2005/2/4,4:45,2.4,0,,2,4.5,0,75,0,9.6,0,8.7,0,7.4,0
2005/2/4,5:00,2.5,0,,2,4.4,0,74.6,0,9.6,0,8.5,0,7.2,0
2005/2/4,5:15,2.5,0,,2,4.4,0,74.1,0,9.5,0,8.3,0,7.1,0
2005/2/4,5:30,2.5,0,,2,4.4,0,73.2,0,9.5,0,8.2,0,7,0
2005/2/4,5:45,2.5,0,,2,4.4,0,73,0,9.5,0,8,0,6.9,0
2005/2/4,6:00,2.6,0,,2,4.4,0,72.1,0,9.5,0,7.9,0,6.9,0
2005/2/4,6:15,2.8,0,,2,4.5,0,71.8,0,9.5,0,7.8,0,6.8,0
2005/2/4,6:30,3,0,,2,4.5,0,70.9,0,9.4,0,7.7,0,6.7,0
2005/2/4,6:45,3,0,,2,4.6,0,70.2,0,9.4,0,7.6,0,6.7,0
2005/2/4,7:00,3.1,0,,2,4.6,0,69.4,0,9.4,0,7.6,0,6.6,0
2005/2/4,7:15,3.3,0,,2,4.7,0,68.6,0,9.4,0,7.5,0,6.6,0
2005/2/4,7:30,3.3,0,,2,4.7,0,68.3,0,9.4,0,7.4,0,6.6,0
2005/2/4,7:45,3.3,0,,2,4.8,0,67.5,0,9.3,0,7.4,0,6.5,0
2005/2/4,8:00,3.3,0,,2,7.9,0,68.8,0,9.3,0,7.3,0,6.5,0
2005/2/4,8:15,3.3,0,,2,7.6,0,73.5,0,9.3,0,7.3,0,6.5,0
2005/2/4,8:30,3.4,0,,2,8,0,75.8,0,9.3,0,7.2,0,6.5,0
2005/2/4,8:45,3.7,0,,2,8.4,0,73.7,0,9.3,0,7.8,0,6.5,0
2005/2/4,9:00,3.9,0,,2,8.7,0,76.1,0,9.3,0,10,0,6.7,0
2005/2/4,9:15,4,0,,2,9.4,0,82.9,0,9.2,0,10.9,0,6.7,0
2005/2/4,9:30,4,0,,2,10.1,0,84.1,0,9.2,0,11.5,0,6.7,0
2005/2/4,9:45,4.2,0,,2,10.5,0,85.8,0,9.2,0,12.1,0,7.7,0
2005/2/4,10:00,4.7,0,,2,11.1,0,85.4,0,9.2,0,12.7,0,7.7,0
2005/2/4,10:15,4.8,0,,2,11.7,0,84.4,0,9.6,0,13.6,0,7.7,0
2005/2/4,10:30,5,0,,2,12.2,0,79.1,0,9.5,0,14.3,0,7.8,0
2005/2/4,10:45,5.3,0,,2,12.5,0,80.3,0,9.5,0,14.9,0,8,0
2005/2/4,11:00,5.2,0,,2,13,0,78,0,9.5,0,15.5,0,8.1,0
2005/2/4,11:15,5.6,0,,2,13.1,0,80.3,0,9.5,0,15.9,0,8.3,0
2005/2/4,11:30,6.7,0,,2,13.4,0,81.3,0,9.5,0,16.2,0,9.9,0
2005/2/4,11:45,7.6,0,,2,14.3,0,72.3,0,9.5,0,16.5,0,9.8,0
2005/2/4,12:00,8.2,0,,2,14.7,0,66.9,0,9.4,0,16.8,0,9.6,0
2005/2/4,12:15,8.2,0,,2,15,0,62.6,0,9.4,0,17.2,0,9.5,0
2005/2/4,12:30,8.1,0,,2,15.1,0,59.7,0,9.3,0,16.8,0,9.5,0
2005/2/4,12:45,8.4,0,,2,14.2,0,60.1,0,9.3,0,15.9,0,9.6,0
2005/2/4,13:00,8.6,0,,2,13.6,0,60.5,0,9.3,0,15.4,0,9.7,0
2005/2/4,13:15,8.9,0,,2,13.9,0,58.3,0,9.3,0,15.2,0,9.8,0
2005/2/4,13:30,9.2,0,,2,14,0,56.6,0,9.3,0,14.9,0,9.8,0
2005/2/4,13:45,9.3,0,,2,14.6,0,54.4,0,9.3,0,14.5,0,9.8,0
2005/2/4,14:00,9,0,,2,15.1,0,52,0,9.3,0,14.5,0,9.9,0
2005/2/4,14:15,9,0,,2,14.6,0,52.4,0,9.3,0,14.4,0,9.9,0
2005/2/4,14:30,8.7,0,,2,14.1,0,53.6,0,9.3,0,14.4,0,10.1,0
2005/2/4,14:45,8.9,0,,2,13.8,0,53.9,0,9.3,0,14.6,0,10.2,0
2005/2/4,15:00,8.8,0,,2,13.6,0,54.3,0,9.3,0,14.5,0,10.2,0
2005/2/4,15:15,8.7,0,,2,13.7,0,54,0,9.3,0,14.2,0,10.3,0
2005/2/4,15:30,8.4,0,,2,13.5,0,54,0,9.3,0,13.9,0,10.3,0
2005/2/4,15:45,8.2,0,,2,13.3,0,54.4,0,9.3,0,13.8,0,10.3,0
2005/2/4,16:00,8,0,,2,12.7,0,56.3,0,9.3,0,13.7,0,10.4,0
2005/2/4,16:15,7.9,0,,2,12.4,0,57.7,0,9.4,0,13.7,0,10.4,0
2005/2/4,16:30,7.7,0,,2,12,0,59.5,0,9.4,0,13.6,0,10.5,0
2005/2/4,16:45,7.6,0,,2,11.7,0,61,0,9.4,0,13.4,0,10.5,0
2005/2/4,17:00,7.4,0,,2,11.5,0,62.6,0,9.4,0,13.2,0,10.6,0
2005/2/4,17:15,7.2,0,,2,11.2,0,64.1,0,9.4,0,13.1,0,10.6,0
2005/2/4,17:30,7,0,,2,10.8,0,65.4,0,9.4,0,13,0,10.6,0
2005/2/4,17:45,6.7,0,,2,10.4,0,66.6,0,9.5,0,13,0,10.5,0
2005/2/4,18:00,6.4,0,,2,10.1,0,68.4,0,9.5,0,12.9,0,10.5,0
2005/2/4,18:15,6.1,0,,2,9.6,0,69.8,0,9.5,0,12.7,0,10.4,0
2005/2/4,18:30,5.9,0,,2,9.2,0,70.5,0,9.5,0,12.6,0,10.4,0
2005/2/4,18:45,5.5,0,,2,8.9,0,72,0,9.5,0,12.4,0,10.3,0
2005/2/4,19:00,5.3,0,,2,8.6,0,74.3,0,9.5,0,12.2,0,10.2,0
2005/2/4,19:15,5.2,0,,2,8.2,0,75.3,0,9.4,0,11.8,0,10,0
2005/2/4,19:30,4.8,0,,2,8.2,0,78.1,0,9.5,0,11.6,0,9.9,0
2005/2/4,19:45,4.7,0,,2,8.9,0,78,0,9.5,0,11.4,0,9.8,0
2005/2/4,20:00,4.5,0,,2,9.6,0,86.3,0,9.5,0,11.3,0,9.7,0
2005/2/4,20:15,4.4,0,,2,9.5,0,79.8,0,9.6,0,11.2,0,9.6,0
2005/2/4,20:30,4.2,0,,2,9.5,0,75,0,9.6,0,12.1,0,9.5,0
2005/2/4,20:45,4.1,0,,2,9.5,0,72.8,0,9.6,0,13.3,0,9.4,0
2005/2/4,21:00,3.9,0,,2,9.4,0,74.4,0,9.6,0,13.3,0,9.4,0
2005/2/4,21:15,3.8,0,,2,9.4,0,72.8,0,9.6,0,13,0,9.2,0
2005/2/4,21:30,3.8,0,,2,9.3,0,72.1,0,9.6,0,13,0,9.1,0
2005/2/4,21:45,3.9,0,,2,9.2,0,71.6,0,9.6,0,12.9,0,8.9,0
2005/2/4,22:00,4,0,,2,9.2,0,71.5,0,9.7,0,13,0,8.8,0
2005/2/4,22:15,3.8,0,,2,9.2,0,72.6,0,9.7,0,13,0,8.7,0
2005/2/4,22:30,3.8,0,,2,9.1,0,72.2,0,9.7,0,13,0,8.5,0
2005/2/4,22:45,3.7,0,,2,12.9,0,59.7,0,9.5,0,12.9,0,8.4,0
2005/2/4,23:00,3.5,0,,2,13.3,0,55.4,0,9.5,0,12.9,0,8.3,0
2005/2/4,23:15,3.5,0,,2,14.7,0,49.6,0,9.4,0,12.9,0,8.2,0
2005/2/4,23:30,3.4,0,,2,14.8,0,48.8,0,9.5,0,13.3,0,8.2,0
2005/2/4,23:45,3.3,0,,2,14.6,0,48.6,0,9.5,0,13.5,0,8.1,0
2005/2/5,0:00,3.3,0,,2,14.3,0,53.3,0,9.5,0,13.6,0,8,0
2005/2/5,0:15,3.3,0,,2,14.3,0,54.9,0,9.5,0,13.8,0,7.9,0
2005/2/5,0:30,3.2,0,,2,11.1,0,62.9,0,9.5,0,13.8,0,8.2,0
2005/2/5,0:45,3.1,0,,2,9.1,0,67.9,0,9.5,0,14.2,0,8.6,0
2005/2/5,1:00,3.1,0,,2,8,0,69.7,0,9.5,0,15.1,0,8.8,0
2005/2/5,1:15,3.1,0,,2,7.4,0,72.4,0,9.5,0,14.6,0,8.8,0
2005/2/5,1:30,3,0,,2,7.2,0,76.3,0,9.5,0,13.2,0,8.7,0
2005/2/5,1:45,3,0,,2,6.9,0,75.4,0,9.5,0,12,0,8.7,0
2005/2/5,2:00,2.9,0,,2,6.7,0,77.1,0,9.5,0,11.3,0,9.1,0
2005/2/5,2:15,2.8,0,,2,6.4,0,76.3,0,9.6,0,11.1,0,8.9,0
2005/2/5,2:30,2.7,0,,2,6.2,0,78,0,9.6,0,10.9,0,8.8,0
2005/2/5,2:45,2.7,0,,2,6,0,79.6,0,9.6,0,10.8,0,9,0
2005/2/5,3:00,2.6,0,,2,5.7,0,80.3,0,9.6,0,10.5,0,8.9,0
2005/2/5,3:15,2.5,0,,2,5.5,0,79.9,0,9.6,0,10.3,0,9.8,0
2005/2/5,3:30,2.5,0,,2,5.3,0,80,0,9.6,0,10.1,0,9.3,0
2005/2/5,3:45,2.4,0,,2,5.1,0,80,0,9.6,0,9.8,0,9.1,0
2005/2/5,4:00,2.5,0,,2,4.9,0,79.9,0,9.6,0,9.5,0,8.9,0
2005/2/5,4:15,2.4,0,,2,4.8,0,79.9,0,9.6,0,9.3,0,8.7,0
2005/2/5,4:30,2.4,0,,2,4.7,0,79.6,0,9.6,0,9.1,0,8.5,0
2005/2/5,4:45,2.4,0,,2,4.6,0,79.7,0,9.6,0,8.9,0,8.3,0
2005/2/5,5:00,2.3,0,,2,4.6,0,79.4,0,9.6,0,8.7,0,8.2,0
2005/2/5,5:15,2.3,0,,2,4.5,0,79.3,0,9.6,0,8.5,0,8.1,0
2005/2/5,5:30,2.5,0,,2,4.4,0,79.2,0,9.6,0,8.4,0,8,0
2005/2/5,5:45,2.5,0,,2,4.5,0,78.1,0,9.6,0,8.3,0,7.8,0
2005/2/5,6:00,2.5,0,,2,4.5,0,77.3,0,9.6,0,8.2,0,7.7,0
2005/2/5,6:15,2.5,0,,2,4.6,0,77,0,9.5,0,8.1,0,7.6,0
2005/2/5,6:30,2.6,0,,2,4.4,0,77.3,0,9.5,0,8,0,7.5,0
2005/2/5,6:45,2.6,0,,2,4.5,0,76.8,0,9.5,0,7.9,0,7.5,0
2005/2/5,7:00,2.6,0,,2,4.5,0,75.9,0,9.5,0,7.8,0,7.3,0
2005/2/5,7:15,2.7,0,,2,4.5,0,75.6,0,9.5,0,7.7,0,7.3,0
2005/2/5,7:30,2.8,0,,2,4.5,0,74.8,0,9.5,0,7.7,0,7.2,0
2005/2/5,7:45,2.9,0,,2,4.6,0,74.2,0,9.5,0,7.6,0,7.1,0
2005/2/5,8:00,3,0,,2,4.7,0,73.5,0,9.5,0,7.5,0,7,0
2005/2/5,8:15,3.1,0,,2,4.7,0,73.4,0,9.5,0,7.4,0,7,0
2005/2/5,8:30,3.2,0,,2,4.8,0,72.5,0,9.4,0,7.4,0,7,0
2005/2/5,8:45,3.5,0,,2,6.5,0,79,0,9.4,0,7.4,0,7,0
2005/2/5,9:00,4,0,,2,7.8,0,77.8,0,9.4,0,7.3,0,6.9,0
2005/2/5,9:15,4.6,0,,2,9.3,0,76.9,0,9,0,7.3,0,6.9,0
2005/2/5,9:30,4.9,0,,2,11.3,0,75.8,0,9.4,0,8.4,0,6.8,0
2005/2/5,9:45,5.6,0,,2,11.9,0,68.1,0,9.4,0,9.8,0,6.8,0
2005/2/5,10:00,5.8,0,,2,12.4,0,64.1,0,9.3,0,11.3,0,6.9,0
2005/2/5,10:15,6.4,0,,2,14.1,0,58.2,0,9.3,0,12.8,0,8,0
2005/2/5,10:30,7.5,0,,2,14,0,57.8,0,9.4,0,13.3,0,7.7,0